Location: Antist
(43.1184°N, 0.1270°E)
Time: 17:02:03
(UTC+00:00)

Cosmos 1610 Rocket - Pass Details

Date: 19 January 2020
Orbit: 953 x 1002 km, 82.9° (Epoch: 19 February)

Event Time Altitude Azimuth Distance (km) Brightness Sun altitude
Rises 17:49:46 0° 182° (S) 3,616 7.8 -10.2°
Reaches altitude 10° 17:52:14 10° 182° (S) 2,673 7.1 -10.6°
Maximum altitude 17:58:21 82° 96° (E) 969 4.4 -11.7°
Drops below altitude 10° 18:04:31 10° 10° (N) 2,698 6.6 -12.7°
Sets 18:07:01 0° 9° (N) 3,653 7.3 -13.2°
